星链-34023 (STARLINK-34023)

导读

STARLINK-34023是美国太空探索技术公司(SpaceX)于2025年5月10日发射的星链(Starlink)系列卫星。作为星链巨型低轨互联网星座的组成部分,它运行在近地轨道,主要为全球尤其是偏远地区提供高速宽带互联网服务,延续了星链项目构建全球覆盖网络的目标,由SpaceX自主研发运营,依托低轨星座架构提升通信覆盖能力与访问速率。

Basic Information
目录编号:
63875
目录名称:
STARLINK-34023
国际标识:
2025-094M
轨道中心:
EARTH
卫星名称:
星链-34023
卫星全名:
星链-34023 (STARLINK-34023)
卫星状态:
在轨 (已飞行400 天)
发射日期:
2025-05-10 UTC
国别 :
美国 (US)
星等 :
--
Orbit Information
数据来源 国际轨道数据 AOE轨道数据
星历时间 2026-06-14T03:32:31+0800
8小时前
查看轨道信息
2026-06-14T01:00:00+0800
10小时前
查看轨道信息
半长轴 6950.156km 6950.165km
偏心率 0.0002947 0.0003219
轨道倾角 70.001° 70.002°
近地点辐角 267.690° 267.875°
升交点赤经 352.017° 352.285°
平近点角 92.392° 241.087°
近地点 569.97km 569.79km
远地点 574.068km 574.266km
周期 96.106分钟 96.106分钟
每日圈数 14.983422 14.983392
Detailed Information
固有亮度:
5
最大亮度:
2.5
卫星平台:
Starlink V1.0
覆盖范围:
全球
运营商:
太空探索技术公司
运营商所在国:
美国
制造商(研发单位):
太空探索技术公司
制造商所在国:
美国
使用方式:
暂无
Satellite Introduction
Starlink 计划是 SpaceX 推出的全球卫星互联网项目,通过发射低轨道卫星,为全球尤其是偏远地区提供高速、低延迟的互联网服务。自 2019 年起,Starlink 已部署数千颗卫星,旨在缩小全球数字鸿沟,推动互联网普及。该项目还为军事、航空等行业提供通信支持,带来广泛经济效益。
2D Orbit Map
3D Orbit Map
Orbit Altitude Analysis Chart
Orbit Inclination Analysis Chart
Orbit Comprehensive Analysis Chart
View Comprehensive Chart